User: anonymous   Login
Location: Unspecified
(0.0000°N, 0.0000°E)
Time: 02:59:10
(UTC+00:00)
Language:

TBA - TO BE ASSIGNED - Orbit

View from above orbital plane
View from above orbital plane
View from above satellite
View from above satellite

Ground track
Ground track

The orbit is defined by the following mean orbital elements,

1 67602U          26145.45063622 +.00000000 +00000-0 +50453-3 0 00000
2 67602  97.2846 210.6619 0000568 193.1366 166.9862 15.33457333    07
Epoch (UTC): 25 May 2026 10:48:54
Eccentricity: 0.0000568
inclination: 97.2846°
perigee height: 465 km
apogee height: 466 km
right ascension of ascending node: 210.6619°
argument of perigee: 193.1366°
revolutions per day: 15.33457333
mean anomaly at epoch: 166.9862°

The dashed part of the orbit path shows where the satellite is in the earth's shadow,  

DLR